• în România
  • Lista ţărilor
  • Pe 7 zile
  • Temperatura apei
  • Hartă satelitară
  • Meteo pe hartă
  • Widget-uri
  • user-avatar
    Intrare

    Meteo pe oră la Satif

    Astăzi, 22 Iulie, Sâmbătă

    Timp Temperatura Precipitaţii Vânt Presiune Umiditate
    00:00 +28°C° 0 mm 1 m/s 673 mmHg 46%
    01:00 +28°C° 0 mm 1 m/s 673 mmHg 45%
    02:00 +28°C° 0 mm 1 m/s 673 mmHg 44%
    03:00 +26°C° 0 mm 0 m/s 673 mmHg 43%
    04:00 +28°C° 0 mm 1 m/s 673 mmHg 40%
    05:00 +29°C° 0 mm 1 m/s 674 mmHg 36%
    06:00 +30°C° 0 mm 1 m/s 674 mmHg 33%
    07:00 +31°C° 0 mm 3 m/s 675 mmHg 29%
    08:00 +34°C° 0 mm 4 m/s 676 mmHg 25%
    09:00 +36°C° 0 mm 5 m/s 676 mmHg 22%
    10:00 +37°C° 0 mm 5 m/s 676 mmHg 20%
    11:00 +39°C° 0 mm 6 m/s 676 mmHg 18%
    12:00 +40°C° 0 mm 6 m/s 677 mmHg 16%
    13:00 +40°C° 0 mm 6 m/s 677 mmHg 17%
    14:00 +40°C° 0 mm 6 m/s 676 mmHg 18%
    15:00 +40°C° 0 mm 6 m/s 676 mmHg 19%
    16:00 +38°C° 0,2 mm 6 m/s 676 mmHg 21%
    17:00 +35°C° 0,2 mm 7 m/s 676 mmHg 24%
    18:00 +34°C° 0,2 mm 7 m/s 676 mmHg 27%
    19:00 +33°C° 0,1 mm 6 m/s 676 mmHg 27%
    20:00 +33°C° 0,1 mm 4 m/s 677 mmHg 27%
    21:00 +33°C° 0,1 mm 3 m/s 677 mmHg 26%
    22:00 +33°C° 0 mm 3 m/s 677 mmHg 27%
    23:00 +31°C° 0 mm 3 m/s 677 mmHg 27%

    Mâine, 23 Iulie, Duminică

    Timp Temperatura Precipitaţii Vânt Presiune Umiditate
    00:00 +31°C° 0 mm 2 m/s 677 mmHg 27%
    01:00 +31°C° 0 mm 3 m/s 677 mmHg 27%
    02:00 +31°C° 0 mm 3 m/s 677 mmHg 26%
    03:00 +32°C° 0 mm 4 m/s 677 mmHg 26%
    04:00 +31°C° 0 mm 3 m/s 677 mmHg 26%
    05:00 +31°C° 0 mm 3 m/s 677 mmHg 26%
    06:00 +31°C° 0 mm 3 m/s 677 mmHg 27%
    07:00 +34°C° 0 mm 4 m/s 678 mmHg 24%
    08:00 +36°C° 0 mm 4 m/s 678 mmHg 21%
    09:00 +37°C° 0 mm 5 m/s 679 mmHg 18%
    10:00 +39°C° 0 mm 6 m/s 679 mmHg 16%
    11:00 +40°C° 0 mm 6 m/s 679 mmHg 15%
    12:00 +41°C° 0 mm 6 m/s 679 mmHg 14%
    13:00 +41°C° 0 mm 6 m/s 678 mmHg 14%
    14:00 +41°C° 0 mm 6 m/s 678 mmHg 14%
    15:00 +41°C° 0 mm 5 m/s 678 mmHg 14%
    16:00 +40°C° 0 mm 5 m/s 677 mmHg 16%
    17:00 +39°C° 0 mm 5 m/s 677 mmHg 17%
    18:00 +37°C° 0 mm 4 m/s 677 mmHg 19%
    19:00 +36°C° 0,2 mm 4 m/s 677 mmHg 21%
    20:00 +35°C° 0,2 mm 4 m/s 677 mmHg 23%
    21:00 +34°C° 0,2 mm 4 m/s 677 mmHg 25%
    22:00 +34°C° 0 mm 3 m/s 677 mmHg 26%
    23:00 +33°C° 0 mm 3 m/s 677 mmHg 27%

    Poimâine, 24 Iulie, Luni

    Timp Temperatura Precipitaţii Vânt Presiune Umiditate
    00:00 +32°C° 0 mm 2 m/s 677 mmHg 27%
    01:00 +31°C° 0 mm 3 m/s 676 mmHg 30%
    02:00 +30°C° 0 mm 3 m/s 676 mmHg 32%
    03:00 +30°C° 0 mm 3 m/s 675 mmHg 34%
    04:00 +29°C° 0 mm 3 m/s 675 mmHg 37%
    05:00 +29°C° 0 mm 2 m/s 675 mmHg 40%
    06:00 +28°C° 0 mm 1 m/s 675 mmHg 43%
    07:00 +30°C° 0 mm 2 m/s 675 mmHg 39%
    08:00 +31°C° 0 mm 3 m/s 675 mmHg 35%
    09:00 +34°C° 0 mm 4 m/s 676 mmHg 31%
    10:00 +35°C° 0 mm 5 m/s 676 mmHg 29%
    11:00 +36°C° 0 mm 6 m/s 676 mmHg 27%
    12:00 +38°C° 0 mm 6 m/s 676 mmHg 25%
    13:00 +38°C° 0 mm 6 m/s 675 mmHg 27%
    14:00 +36°C° 0 mm 6 m/s 675 mmHg 28%
    15:00 +36°C° 0 mm 6 m/s 674 mmHg 30%
    16:00 +34°C° 0 mm 6 m/s 674 mmHg 36%
    17:00 +33°C° 0 mm 5 m/s 674 mmHg 42%
    18:00 +30°C° 0 mm 5 m/s 674 mmHg 48%
    19:00 +28°C° 0 mm 4 m/s 674 mmHg 54%
    20:00 +27°C° 0 mm 3 m/s 674 mmHg 60%
    21:00 +25°C° 0 mm 3 m/s 674 mmHg 66%
    22:00 +25°C° 0 mm 2 m/s 673 mmHg 68%
    23:00 +24°C° 0 mm 2 m/s 673 mmHg 69%

    25 Iulie, Marţi

    Timp Temperatura Precipitaţii Vânt Presiune Umiditate
    00:00 +24°C° 0 mm 2 m/s 673 mmHg 71%
    01:00 +23°C° 0 mm 2 m/s 673 mmHg 72%
    02:00 +23°C° 0 mm 2 m/s 672 mmHg 73%
    03:00 +21°C° 0 mm 2 m/s 672 mmHg 75%
    04:00 +21°C° 0 mm 2 m/s 672 mmHg 73%
    05:00 +21°C° 0 mm 2 m/s 672 mmHg 71%
    06:00 +21°C° 0 mm 2 m/s 672 mmHg 69%
    07:00 +24°C° 0 mm 1 m/s 673 mmHg 59%
    08:00 +25°C° 0 mm 1 m/s 673 mmHg 48%
    09:00 +27°C° 0 mm 1 m/s 673 mmHg 37%
    10:00 +29°C° 0 mm 1 m/s 673 mmHg 33%
    11:00 +30°C° 0 mm 1 m/s 673 mmHg 29%
    12:00 +31°C° 0 mm 2 m/s 673 mmHg 25%
    13:00 +33°C° 0 mm 3 m/s 673 mmHg 25%
    14:00 +33°C° 0 mm 3 m/s 673 mmHg 25%
    15:00 +34°C° 0 mm 4 m/s 673 mmHg 25%
    16:00 +33°C° 0 mm 4 m/s 672 mmHg 30%
    17:00 +30°C° 0 mm 4 m/s 672 mmHg 35%
    18:00 +29°C° 0 mm 3 m/s 672 mmHg 40%
    19:00 +28°C° 0 mm 3 m/s 672 mmHg 48%
    20:00 +26°C° 0 mm 3 m/s 672 mmHg 55%
    21:00 +25°C° 0 mm 2 m/s 672 mmHg 63%
    22:00 +24°C° 0 mm 2 m/s 671 mmHg 65%
    23:00 +23°C° 0 mm 2 m/s 671 mmHg 67%

    26 Iulie, Miercuri

    Timp Temperatura Precipitaţii Vânt Presiune Umiditate
    00:00 +23°C° 0 mm 2 m/s 671 mmHg 70%
    01:00 +21°C° 0 mm 2 m/s 671 mmHg 71%
    02:00 +21°C° 0 mm 2 m/s 671 mmHg 73%
    03:00 +20°C° 0 mm 2 m/s 671 mmHg 74%
    04:00 +20°C° 0 mm 2 m/s 671 mmHg 73%
    05:00 +20°C° 0 mm 2 m/s 671 mmHg 71%
    06:00 +20°C° 0 mm 2 m/s 671 mmHg 69%
    07:00 +23°C° 0 mm 1 m/s 672 mmHg 60%
    08:00 +24°C° 0 mm 1 m/s 672 mmHg 50%
    09:00 +26°C° 0 mm 1 m/s 673 mmHg 41%
    10:00 +27°C° 0 mm 2 m/s 673 mmHg 37%
    11:00 +29°C° 0 mm 3 m/s 673 mmHg 33%
    12:00 +30°C° 0 mm 4 m/s 673 mmHg 30%
    13:00 +30°C° 0 mm 4 m/s 673 mmHg 30%
    14:00 +32°C° 0 mm 5 m/s 673 mmHg 30%
    15:00 +32°C° 0 mm 5 m/s 672 mmHg 30%
    16:00 +30°C° 0 mm 5 m/s 672 mmHg 34%
    17:00 +29°C° 0 mm 5 m/s 672 mmHg 39%
    18:00 +27°C° 0 mm 5 m/s 672 mmHg 43%
    19:00 +26°C° 0 mm 4 m/s 672 mmHg 47%
    20:00 +25°C° 0 mm 3 m/s 672 mmHg 52%
    21:00 +24°C° 0 mm 3 m/s 672 mmHg 56%
    22:00 +23°C° 0 mm 2 m/s 672 mmHg 58%
    23:00 +23°C° 0 mm 2 m/s 672 mmHg 60%

    27 Iulie, Joi

    Timp Temperatura Precipitaţii Vânt Presiune Umiditate
    00:00 +21°C° 0 mm 2 m/s 672 mmHg 62%
    01:00 +21°C° 0 mm 2 m/s 672 mmHg 63%
    02:00 +20°C° 0 mm 2 m/s 672 mmHg 65%
    03:00 +20°C° 0 mm 2 m/s 672 mmHg 67%
    04:00 +21°C° 0 mm 1 m/s 672 mmHg 65%
    05:00 +21°C° 0 mm 1 m/s 672 mmHg 64%
    06:00 +21°C° 0 mm 1 m/s 673 mmHg 63%
    07:00 +22°C° 0 mm 1 m/s 673 mmHg 54%
    08:00 +23°C° 0 mm 2 m/s 674 mmHg 45%
    09:00 +25°C° 0 mm 2 m/s 674 mmHg 37%
    10:00 +26°C° 0 mm 2 m/s 675 mmHg 32%
    11:00 +27°C° 0 mm 2 m/s 675 mmHg 28%
    12:00 +28°C° 0 mm 2 m/s 675 mmHg 24%
    13:00 +29°C° 0 mm 3 m/s 675 mmHg 23%
    14:00 +29°C° 0 mm 3 m/s 675 mmHg 23%
    15:00 +30°C° 0 mm 3 m/s 675 mmHg 23%
    16:00 +29°C° 0 mm 3 m/s 675 mmHg 25%
    17:00 +28°C° 0 mm 4 m/s 675 mmHg 28%
    18:00 +28°C° 0 mm 4 m/s 675 mmHg 30%
    19:00 +27°C° 0 mm 3 m/s 675 mmHg 35%
    20:00 +25°C° 0 mm 3 m/s 675 mmHg 39%
    21:00 +24°C° 0 mm 2 m/s 675 mmHg 44%
    22:00 +24°C° 0 mm 2 m/s 675 mmHg 45%
    23:00 +24°C° 0 mm 2 m/s 675 mmHg 46%
    Arată mai mult